User: anonymous   Login
Location: NJAA Observatory
(40.6819°N, 74.8979°W)
Time: 23:29:56
(UTC-04:00)
Language:

Cosmos 2237 Rocket - Orbit

View from above orbital plane
View from above orbital plane
View from above satellite
View from above satellite

Ground track
Ground track

The orbit data is extracted from the following two-line orbital elements,

1 22566U 93016B   16211.83551657 -.00000301  00000-0 -13100-3 0  9995
2 22566  71.0078  23.5510 0012712 265.4125  94.5545 14.14929230205677
Epoch (UTC): 29 July 2016 20:03:08
Eccentricity: 0.0012712
inclination: 71.0078°
perigee height: 833 km
apogee height: 852 km
right ascension of ascending node: 23.5510°
argument of perigee: 265.4125°
revolutions per day: 14.14929230
mean anomaly at epoch: 94.5545°
orbit number at epoch: 20567

The dashed part of the orbit path shows where the satellite is in the earth's shadow,  

DLR